When you browse on this site, cookies collect data to enhance your experience and personalize the content and advertising you see.
Visit our Privacy Policy to learn more. By continuing to use the site, you agree to this use of cookies and data.
  • In Spain
  • List of Countries
  • For 7 days
  • Water Temperature
  • Weather Map
  • Weather Widgets
  • user-avatar
    Login

    Hourly Weather Graneros

    Today, 23 January, Thursday

    Time Temperature Precipitation Wind Pressure Humidity
    00:00 +18°C° 0 mm 0 mps 719 mmHg 81%
    01:00 +17°C° 0 mm 0 mps 719 mmHg 82%
    02:00 +17°C° 0 mm 0 mps 719 mmHg 82%
    03:00 +17°C° 0 mm 0 mps 719 mmHg 83%
    04:00 +17°C° 0 mm 0 mps 719 mmHg 84%
    05:00 +18°C° 0 mm 0 mps 720 mmHg 76%
    06:00 +22°C° 0 mm 1 mps 720 mmHg 68%
    07:00 +24°C° 0 mm 1 mps 721 mmHg 60%
    08:00 +26°C° 0 mm 1 mps 721 mmHg 53%
    09:00 +29°C° 0 mm 2 mps 721 mmHg 46%
    10:00 +31°C° 0 mm 2 mps 721 mmHg 40%
    11:00 +33°C° 0 mm 3 mps 721 mmHg 37%
    12:00 +34°C° 0 mm 3 mps 721 mmHg 34%
    13:00 +36°C° 0 mm 4 mps 721 mmHg 31%
    14:00 +35°C° 0 mm 4 mps 721 mmHg 32%
    15:00 +34°C° 0 mm 4 mps 720 mmHg 34%
    16:00 +33°C° 0 mm 4 mps 720 mmHg 35%
    17:00 +30°C° 0 mm 3 mps 720 mmHg 42%
    18:00 +27°C° 0 mm 2 mps 720 mmHg 49%
    19:00 +24°C° 0 mm 1 mps 720 mmHg 57%
    20:00 +23°C° 0 mm 1 mps 720 mmHg 61%
    21:00 +22°C° 0 mm 1 mps 720 mmHg 66%
    22:00 +20°C° 0 mm 1 mps 720 mmHg 71%
    23:00 +18°C° 0 mm 0 mps 719 mmHg 72%

    Tomorrow, 24 January, Friday

    Time Temperature Precipitation Wind Pressure Humidity
    00:00 +17°C° 0 mm 0 mps 719 mmHg 74%
    01:00 +17°C° 0 mm 0 mps 719 mmHg 76%
    02:00 +17°C° 0 mm 0 mps 719 mmHg 76%
    03:00 +17°C° 0 mm 0 mps 719 mmHg 76%
    04:00 +17°C° 0 mm 0 mps 719 mmHg 76%
    05:00 +19°C° 0 mm 0 mps 720 mmHg 67%
    06:00 +21°C° 0 mm 0 mps 720 mmHg 59%
    07:00 +25°C° 0 mm 1 mps 720 mmHg 50%
    08:00 +27°C° 0 mm 1 mps 721 mmHg 45%
    09:00 +29°C° 0 mm 2 mps 721 mmHg 39%
    10:00 +32°C° 0 mm 2 mps 721 mmHg 34%
    11:00 +34°C° 0 mm 3 mps 721 mmHg 30%
    12:00 +35°C° 0 mm 3 mps 721 mmHg 26%
    13:00 +37°C° 0 mm 4 mps 720 mmHg 23%
    14:00 +37°C° 0 mm 4 mps 720 mmHg 21%
    15:00 +37°C° 0 mm 4 mps 720 mmHg 20%
    16:00 +37°C° 0 mm 4 mps 720 mmHg 19%
    17:00 +33°C° 0 mm 3 mps 720 mmHg 28%
    18:00 +28°C° 0 mm 2 mps 720 mmHg 37%
    19:00 +24°C° 0 mm 1 mps 719 mmHg 46%
    20:00 +23°C° 0 mm 1 mps 719 mmHg 50%
    21:00 +20°C° 0 mm 0 mps 719 mmHg 55%
    22:00 +18°C° 0 mm 0 mps 719 mmHg 59%
    23:00 +18°C° 0 mm 0 mps 719 mmHg 59%

    Day after tomorrow, 25 January, Saturday

    Time Temperature Precipitation Wind Pressure Humidity
    00:00 +18°C° 0 mm 0 mps 719 mmHg 58%
    01:00 +17°C° 0 mm 0 mps 719 mmHg 58%
    02:00 +17°C° 0 mm 0 mps 719 mmHg 56%
    03:00 +17°C° 0 mm 0 mps 719 mmHg 55%
    04:00 +16°C° 0 mm 0 mps 719 mmHg 53%
    05:00 +19°C° 0 mm 0 mps 719 mmHg 45%
    06:00 +22°C° 0 mm 0 mps 720 mmHg 38%
    07:00 +27°C° 0 mm 1 mps 720 mmHg 30%
    08:00 +29°C° 0 mm 1 mps 720 mmHg 25%
    09:00 +31°C° 0 mm 2 mps 720 mmHg 20%
    10:00 +34°C° 0 mm 3 mps 721 mmHg 16%
    11:00 +36°C° 0 mm 3 mps 721 mmHg 14%
    12:00 +37°C° 0 mm 3 mps 721 mmHg 12%
    13:00 +38°C° 0 mm 3 mps 721 mmHg 10%
    14:00 +38°C° 0 mm 4 mps 720 mmHg 10%
    15:00 +37°C° 0 mm 4 mps 720 mmHg 10%
    16:00 +37°C° 0 mm 4 mps 720 mmHg 11%
    17:00 +33°C° 0 mm 3 mps 720 mmHg 16%
    18:00 +28°C° 0 mm 2 mps 720 mmHg 22%
    19:00 +25°C° 0 mm 1 mps 720 mmHg 28%
    20:00 +23°C° 0 mm 1 mps 720 mmHg 31%
    21:00 +22°C° 0 mm 1 mps 720 mmHg 33%
    22:00 +19°C° 0 mm 0 mps 719 mmHg 36%
    23:00 +18°C° 0 mm 0 mps 719 mmHg 36%

    26 January, Sunday

    Time Temperature Precipitation Wind Pressure Humidity
    00:00 +18°C° 0 mm 0 mps 719 mmHg 37%
    01:00 +18°C° 0 mm 0 mps 718 mmHg 37%
    02:00 +17°C° 0 mm 0 mps 719 mmHg 38%
    03:00 +17°C° 0 mm 0 mps 719 mmHg 39%
    04:00 +17°C° 0 mm 0 mps 719 mmHg 40%
    05:00 +20°C° 0 mm 0 mps 719 mmHg 35%
    06:00 +24°C° 0 mm 1 mps 720 mmHg 30%
    07:00 +27°C° 0 mm 1 mps 721 mmHg 25%
    08:00 +29°C° 0 mm 1 mps 721 mmHg 23%
    09:00 +31°C° 0 mm 2 mps 721 mmHg 21%
    10:00 +34°C° 0 mm 2 mps 721 mmHg 20%
    11:00 +35°C° 0 mm 3 mps 721 mmHg 19%
    12:00 +36°C° 0 mm 3 mps 721 mmHg 18%
    13:00 +37°C° 0 mm 3 mps 721 mmHg 17%
    14:00 +36°C° 0 mm 4 mps 721 mmHg 19%
    15:00 +36°C° 0 mm 4 mps 721 mmHg 20%
    16:00 +35°C° 0 mm 4 mps 721 mmHg 22%
    17:00 +31°C° 0 mm 3 mps 720 mmHg 31%
    18:00 +28°C° 0 mm 2 mps 720 mmHg 39%
    19:00 +25°C° 0 mm 1 mps 720 mmHg 48%
    20:00 +24°C° 0 mm 1 mps 721 mmHg 52%
    21:00 +22°C° 0 mm 1 mps 721 mmHg 57%
    22:00 +19°C° 0 mm 0 mps 721 mmHg 62%
    23:00 +19°C° 0 mm 0 mps 720 mmHg 63%

    27 January, Monday

    Time Temperature Precipitation Wind Pressure Humidity
    00:00 +18°C° 0 mm 0 mps 720 mmHg 65%
    01:00 +18°C° 0 mm 0 mps 719 mmHg 67%
    02:00 +18°C° 0 mm 0 mps 719 mmHg 67%
    03:00 +18°C° 0 mm 0 mps 719 mmHg 68%
    04:00 +18°C° 0 mm 0 mps 719 mmHg 68%
    05:00 +20°C° 0 mm 0 mps 720 mmHg 60%
    06:00 +22°C° 0 mm 0 mps 720 mmHg 51%
    07:00 +25°C° 0 mm 0 mps 721 mmHg 42%
    08:00 +29°C° 0 mm 1 mps 721 mmHg 38%
    09:00 +31°C° 0 mm 2 mps 721 mmHg 34%
    10:00 +34°C° 0 mm 2 mps 721 mmHg 30%
    11:00 +35°C° 0 mm 3 mps 721 mmHg 27%
    12:00 +36°C° 0 mm 3 mps 721 mmHg 25%
    13:00 +37°C° 0 mm 4 mps 720 mmHg 22%
    14:00 +36°C° 0 mm 4 mps 720 mmHg 25%
    15:00 +35°C° 0 mm 4 mps 720 mmHg 27%
    16:00 +35°C° 0 mm 5 mps 720 mmHg 29%
    17:00 +30°C° 0 mm 4 mps 720 mmHg 38%
    18:00 +27°C° 0 mm 2 mps 720 mmHg 47%
    19:00 +24°C° 0 mm 1 mps 720 mmHg 55%
    20:00 +23°C° 0 mm 1 mps 720 mmHg 61%
    21:00 +22°C° 0 mm 1 mps 720 mmHg 66%
    22:00 +18°C° 0 mm 0 mps 720 mmHg 71%
    23:00 +18°C° 0 mm 0 mps 720 mmHg 72%

    28 January, Tuesday

    Time Temperature Precipitation Wind Pressure Humidity
    00:00 +18°C° 0 mm 0 mps 719 mmHg 73%
    01:00 +17°C° 0 mm 0 mps 719 mmHg 74%
    02:00 +17°C° 0 mm 0 mps 718 mmHg 75%
    03:00 +17°C° 0 mm 0 mps 718 mmHg 76%
    04:00 +16°C° 0 mm 0 mps 718 mmHg 77%
    05:00 +19°C° 0 mm 0 mps 719 mmHg 68%
    06:00 +21°C° 0 mm 0 mps 719 mmHg 60%
    07:00 +25°C° 0 mm 1 mps 719 mmHg 51%
    08:00 +27°C° 0 mm 1 mps 720 mmHg 45%
    09:00 +29°C° 0 mm 2 mps 720 mmHg 38%
    10:00 +32°C° 0 mm 2 mps 720 mmHg 32%
    11:00 +33°C° 0.1 mm 3 mps 720 mmHg 30%
    12:00 +34°C° 0.1 mm 3 mps 719 mmHg 29%
    13:00 +35°C° 0.1 mm 4 mps 719 mmHg 27%
    14:00 +34°C° 0.2 mm 4 mps 719 mmHg 29%
    15:00 +33°C° 0.2 mm 3 mps 719 mmHg 30%
    16:00 +33°C° 0.2 mm 3 mps 719 mmHg 32%
    17:00 +29°C° 0.3 mm 2 mps 719 mmHg 43%
    18:00 +25°C° 0.3 mm 2 mps 719 mmHg 55%
    19:00 +22°C° 0.3 mm 1 mps 719 mmHg 67%
    20:00 +21°C° 0.1 mm 1 mps 719 mmHg 71%
    21:00 +20°C° 0.1 mm 1 mps 719 mmHg 75%
    22:00 +17°C° 0.1 mm 0 mps 720 mmHg 80%
    23:00 +16°C° 0 mm 0 mps 719 mmHg 82%
    Show more